{"data":{"norad_id":43070,"epoch":"2026-09-20T00:52:55.162848Z","epoch_age_seconds":55467,"freshness":"FRESH","line1":"1 43070U 17083A   26263.03674957  .00000017  00000+0 -97002-6 0  9995","line2":"2 43070  86.3911 282.3598 0002269  91.8512 268.2944 14.34217545457744","mean_motion":14.34217545,"eccentricity":0.0002269,"inclination_deg":86.3911,"raan_deg":282.3598,"arg_perigee_deg":91.8512,"mean_anomaly_deg":268.2944,"bstar":-9.7002e-7,"rev_number":45774,"period_min":100.40317837557,"perigee_km":776.04418411309,"apogee_km":779.29148834777,"semimajor_km":7155.8048362304,"source":"CELESTRAK","updated_at":"2026-09-20T09:00:36.326328Z"}}